Year,Month,Day,Hour,Minute,Value (Times are PST for temperature in C)
2019,01,23,08,56,6.60
2019,01,23,08,57,6.60
2019,01,23,08,58,6.60
2019,01,23,08,59,6.60
2019,01,23,09,00,6.60
2019,01,23,09,01,6.60
2019,01,23,09,02,6.60
2019,01,23,09,03,6.60
2019,01,23,09,04,6.60
2019,01,23,09,05,6.60
2019,01,23,09,06,6.60
2019,01,23,09,07,6.60
2019,01,23,09,08,6.60
2019,01,23,09,09,6.60
2019,01,23,09,10,6.60
2019,01,23,09,11,6.60
2019,01,23,09,12,6.60
2019,01,23,09,13,6.60
2019,01,23,09,14,6.60
2019,01,23,09,15,6.60
2019,01,23,09,16,6.60
2019,01,23,09,17,6.60
2019,01,23,09,18,6.60
2019,01,23,09,19,6.60
2019,01,23,09,20,6.60
2019,01,23,09,21,6.60
2019,01,23,09,22,6.60
2019,01,23,09,23,6.60
2019,01,23,09,24,6.70
2019,01,23,09,25,6.70
2019,01,23,09,26,6.70
2019,01,23,09,27,6.70
2019,01,23,09,28,6.70
2019,01,23,09,29,6.70
2019,01,23,09,30,6.70
2019,01,23,09,31,6.70
2019,01,23,09,32,6.70
2019,01,23,09,33,6.80
2019,01,23,09,34,6.80
2019,01,23,09,35,6.80
2019,01,23,09,36,6.80
2019,01,23,09,37,6.80
2019,01,23,09,38,6.80
2019,01,23,09,39,6.80
2019,01,23,09,40,6.80
2019,01,23,09,41,6.80
2019,01,23,09,42,6.80
2019,01,23,09,43,6.80
2019,01,23,09,44,6.80
2019,01,23,09,45,6.80
2019,01,23,09,46,6.80
2019,01,23,09,47,6.80
2019,01,23,09,48,6.80
2019,01,23,09,49,6.90
2019,01,23,09,50,6.90
2019,01,23,09,51,6.90
2019,01,23,09,52,7.00
2019,01,23,09,53,7.00
2019,01,23,09,54,7.00
2019,01,23,09,55,7.10
2019,01,23,09,56,7.10
2019,01,23,09,57,7.10
2019,01,23,09,58,7.10
2019,01,23,09,59,7.10
2019,01,23,10,00,7.10
2019,01,23,10,01,7.10
2019,01,23,10,02,7.10
2019,01,23,10,03,7.10
2019,01,23,10,04,7.10
2019,01,23,10,05,7.10
2019,01,23,10,06,7.10
2019,01,23,10,07,7.10
2019,01,23,10,08,7.20
2019,01,23,10,09,7.20
2019,01,23,10,10,7.20
2019,01,23,10,11,7.20
2019,01,23,10,12,7.20
2019,01,23,10,13,7.20
2019,01,23,10,14,7.20
2019,01,23,10,15,7.20
2019,01,23,10,16,7.30
2019,01,23,10,17,7.30
2019,01,23,10,18,7.30
2019,01,23,10,19,7.30
2019,01,23,10,20,7.30
2019,01,23,10,21,7.30
2019,01,23,10,22,7.30
2019,01,23,10,23,7.30
2019,01,23,10,24,7.40
2019,01,23,10,25,7.40
2019,01,23,10,26,7.40
2019,01,23,10,27,7.40
2019,01,23,10,28,7.40
2019,01,23,10,29,7.50
2019,01,23,10,30,7.50
2019,01,23,10,31,7.50
2019,01,23,10,32,7.50
2019,01,23,10,33,7.50
2019,01,23,10,34,7.50
2019,01,23,10,35,7.60
2019,01,23,10,36,7.60
2019,01,23,10,37,7.60
2019,01,23,10,38,7.60
2019,01,23,10,39,7.70
2019,01,23,10,40,7.70
2019,01,23,10,41,7.70
2019,01,23,10,42,7.70
2019,01,23,10,43,7.70
2019,01,23,10,44,7.70
2019,01,23,10,45,7.70
2019,01,23,10,46,7.70
2019,01,23,10,47,7.70
2019,01,23,10,48,7.70
2019,01,23,10,49,7.70
2019,01,23,10,50,7.80
2019,01,23,10,51,7.80
2019,01,23,10,52,7.80
2019,01,23,10,53,7.80
2019,01,23,10,54,7.80
2019,01,23,10,55,7.80
2019,01,23,10,56,7.80
2019,01,23,10,57,7.80
2019,01,23,10,58,7.90
2019,01,23,10,59,7.90
2019,01,23,11,00,8.00
2019,01,23,11,01,8.10
2019,01,23,11,02,8.10
2019,01,23,11,03,8.10
2019,01,23,11,04,8.10
2019,01,23,11,05,8.10
2019,01,23,11,06,8.10
2019,01,23,11,07,8.10
2019,01,23,11,08,8.10
2019,01,23,11,09,8.20
2019,01,23,11,10,8.30
2019,01,23,11,11,8.30
2019,01,23,11,12,8.40
2019,01,23,11,13,8.40
2019,01,23,11,14,8.50
2019,01,23,11,15,8.50
2019,01,23,11,16,8.60
2019,01,23,11,17,8.60
2019,01,23,11,18,8.60
2019,01,23,11,19,8.60
2019,01,23,11,20,8.60
2019,01,23,11,21,8.50
2019,01,23,11,22,8.50
2019,01,23,11,23,8.50
2019,01,23,11,24,8.50
2019,01,23,11,25,8.60
2019,01,23,11,26,8.60
2019,01,23,11,27,8.50
2019,01,23,11,28,8.50
2019,01,23,11,29,8.40
2019,01,23,11,30,8.40
2019,01,23,11,31,8.40
2019,01,23,11,32,8.40
2019,01,23,11,33,8.40
2019,01,23,11,34,8.40
2019,01,23,11,35,8.40
2019,01,23,11,36,8.50
2019,01,23,11,37,8.40
2019,01,23,11,38,8.50
2019,01,23,11,39,8.50
2019,01,23,11,40,8.50
2019,01,23,11,41,8.40
2019,01,23,11,42,8.40
2019,01,23,11,43,8.40
2019,01,23,11,44,8.40
2019,01,23,11,45,8.30
2019,01,23,11,46,8.30
2019,01,23,11,47,8.20
2019,01,23,11,48,8.20
2019,01,23,11,49,8.20
2019,01,23,11,50,8.20
2019,01,23,11,51,8.10
2019,01,23,11,52,8.10
2019,01,23,11,53,8.10
2019,01,23,11,54,8.10
2019,01,23,11,55,8.10
2019,01,23,11,56,8.10
2019,01,23,11,57,8.00
2019,01,23,11,58,8.00
2019,01,23,11,59,8.00
2019,01,23,12,00,8.10
2019,01,23,12,01,8.10
2019,01,23,12,02,8.10
2019,01,23,12,03,8.10
2019,01,23,12,04,8.10
2019,01,23,12,05,8.20
2019,01,23,12,06,8.20
2019,01,23,12,07,8.10
2019,01,23,12,08,8.20
2019,01,23,12,09,8.20
2019,01,23,12,10,8.20
2019,01,23,12,11,8.20
2019,01,23,12,12,8.20
2019,01,23,12,13,8.10
2019,01,23,12,14,8.20
2019,01,23,12,15,8.20
2019,01,23,12,16,8.20
2019,01,23,12,17,8.20
2019,01,23,12,18,8.20
2019,01,23,12,19,8.20
2019,01,23,12,20,8.20
2019,01,23,12,21,8.20
2019,01,23,12,22,8.20
2019,01,23,12,23,8.20
2019,01,23,12,24,8.20
2019,01,23,12,25,8.20
2019,01,23,12,26,8.10
2019,01,23,12,27,8.10
2019,01,23,12,28,8.20
2019,01,23,12,29,8.10
2019,01,23,12,30,8.10
2019,01,23,12,31,8.10
2019,01,23,12,32,8.10
2019,01,23,12,33,8.10
2019,01,23,12,34,8.10
2019,01,23,12,35,8.10
2019,01,23,12,36,8.10
2019,01,23,12,37,8.10
2019,01,23,12,38,8.10
2019,01,23,12,39,8.10
2019,01,23,12,40,8.20
2019,01,23,12,41,8.20
2019,01,23,12,42,8.20
2019,01,23,12,43,8.10
2019,01,23,12,44,8.10
2019,01,23,12,45,8.20
2019,01,23,12,46,8.10
2019,01,23,12,47,8.10
2019,01,23,12,48,8.10
2019,01,23,12,49,8.10
2019,01,23,12,50,8.10
2019,01,23,12,51,8.20
2019,01,23,12,52,8.20
2019,01,23,12,53,8.20
2019,01,23,12,54,8.20
2019,01,23,12,55,8.20
2019,01,23,12,56,8.20
2019,01,23,12,57,8.20
2019,01,23,12,58,8.20
2019,01,23,12,59,8.20
2019,01,23,13,00,8.30
2019,01,23,13,01,8.30
2019,01,23,13,02,8.30
2019,01,23,13,03,8.30
2019,01,23,13,04,8.30
2019,01,23,13,05,8.30
2019,01,23,13,06,8.30
2019,01,23,13,07,8.30
2019,01,23,13,08,8.30
2019,01,23,13,09,8.30
2019,01,23,13,10,8.30
2019,01,23,13,11,8.40
2019,01,23,13,12,8.40
2019,01,23,13,13,8.50
2019,01,23,13,14,8.50
2019,01,23,13,15,8.50
2019,01,23,13,16,8.50
2019,01,23,13,17,8.50
2019,01,23,13,18,8.60
2019,01,23,13,19,8.60
2019,01,23,13,20,8.60
2019,01,23,13,21,8.70
2019,01,23,13,22,8.70
2019,01,23,13,23,8.80
2019,01,23,13,24,8.80
2019,01,23,13,25,8.90
2019,01,23,13,26,8.90
2019,01,23,13,27,8.90
2019,01,23,13,28,8.90
2019,01,23,13,29,8.90
2019,01,23,13,30,8.90
2019,01,23,13,31,9.00
2019,01,23,13,32,9.00
2019,01,23,13,33,9.00
2019,01,23,13,34,9.10
2019,01,23,13,35,9.10
2019,01,23,13,36,9.10
2019,01,23,13,37,9.10
2019,01,23,13,38,9.10
2019,01,23,13,39,9.10
2019,01,23,13,40,9.10
2019,01,23,13,41,9.10
2019,01,23,13,42,9.10
2019,01,23,13,43,9.10
2019,01,23,13,44,9.10
2019,01,23,13,45,9.10
2019,01,23,13,46,9.10
2019,01,23,13,47,9.10
2019,01,23,13,48,9.10
2019,01,23,13,49,9.10
2019,01,23,13,50,9.10
2019,01,23,13,51,9.20
2019,01,23,13,52,9.20
2019,01,23,13,53,9.30
2019,01,23,13,54,9.30
2019,01,23,13,55,9.40
2019,01,23,13,56,9.50
2019,01,23,13,57,9.50
2019,01,23,13,58,9.60
2019,01,23,13,59,9.60
2019,01,23,14,00,9.60
2019,01,23,14,01,9.60
2019,01,23,14,02,9.60
2019,01,23,14,03,9.70
2019,01,23,14,04,9.70
2019,01,23,14,05,9.70
2019,01,23,14,06,9.70
2019,01,23,14,07,9.70
2019,01,23,14,08,9.80
2019,01,23,14,09,9.80
2019,01,23,14,10,9.70
2019,01,23,14,11,9.70
2019,01,23,14,12,9.70
2019,01,23,14,13,9.70
2019,01,23,14,14,9.70
2019,01,23,14,15,9.70
2019,01,23,14,16,9.70
2019,01,23,14,17,9.60
2019,01,23,14,18,9.60
2019,01,23,14,19,9.60
2019,01,23,14,20,9.60
2019,01,23,14,21,9.50
2019,01,23,14,22,9.40
2019,01,23,14,23,9.30
2019,01,23,14,24,9.20
2019,01,23,14,25,9.10
2019,01,23,14,26,9.10
2019,01,23,14,27,9.00
2019,01,23,14,28,9.00
2019,01,23,14,29,9.00
2019,01,23,14,30,9.00
2019,01,23,14,31,9.10
2019,01,23,14,32,9.10
2019,01,23,14,33,9.10
2019,01,23,14,34,9.10
2019,01,23,14,35,9.10
2019,01,23,14,36,9.00
2019,01,23,14,37,9.00
2019,01,23,14,38,9.00
2019,01,23,14,39,9.10
2019,01,23,14,40,9.10
2019,01,23,14,41,9.10
2019,01,23,14,42,9.20
2019,01,23,14,43,9.20
2019,01,23,14,44,9.10
2019,01,23,14,45,9.10
2019,01,23,14,46,9.00
2019,01,23,14,47,9.00
2019,01,23,14,48,9.00
2019,01,23,14,49,8.90
2019,01,23,14,50,8.90
2019,01,23,14,51,8.90
2019,01,23,14,52,8.90
2019,01,23,14,53,8.90
2019,01,23,14,54,8.90
2019,01,23,14,55,8.90
2019,01,23,14,56,8.80
2019,01,23,14,57,8.80
2019,01,23,14,58,8.80
2019,01,23,14,59,8.80
2019,01,23,15,00,8.80
2019,01,23,15,01,8.80
2019,01,23,15,02,8.70
2019,01,23,15,03,8.70
2019,01,23,15,04,8.70
2019,01,23,15,05,8.60
2019,01,23,15,06,8.60
2019,01,23,15,07,8.60
2019,01,23,15,08,8.50
2019,01,23,15,09,8.50
2019,01,23,15,10,8.50
2019,01,23,15,11,8.40
2019,01,23,15,12,8.40
2019,01,23,15,13,8.40
2019,01,23,15,14,8.40
2019,01,23,15,15,8.40
2019,01,23,15,16,8.40
2019,01,23,15,17,8.40
2019,01,23,15,18,8.40
2019,01,23,15,19,8.40
2019,01,23,15,20,8.40
2019,01,23,15,21,8.40
2019,01,23,15,22,8.40
2019,01,23,15,23,8.40
2019,01,23,15,24,8.40
2019,01,23,15,25,8.40
2019,01,23,15,26,8.40
2019,01,23,15,27,8.40
2019,01,23,15,28,8.40
2019,01,23,15,29,8.40
2019,01,23,15,30,8.40
2019,01,23,15,31,8.40
2019,01,23,15,32,8.30
2019,01,23,15,33,8.30
2019,01,23,15,34,8.30
2019,01,23,15,35,8.30
2019,01,23,15,36,8.30
2019,01,23,15,37,8.30
2019,01,23,15,38,8.30
2019,01,23,15,39,8.30
2019,01,23,15,40,8.30
2019,01,23,15,41,8.30
2019,01,23,15,42,8.30
2019,01,23,15,43,8.20
2019,01,23,15,44,8.20
2019,01,23,15,45,8.20
2019,01,23,15,46,8.20
2019,01,23,15,47,8.20
2019,01,23,15,48,8.20
2019,01,23,15,49,8.20
2019,01,23,15,50,8.20
2019,01,23,15,51,8.20
2019,01,23,15,52,8.20
2019,01,23,15,53,8.20
2019,01,23,15,54,8.20
2019,01,23,15,55,8.20
2019,01,23,15,56,8.20
2019,01,23,15,57,8.20
2019,01,23,15,58,8.20
2019,01,23,15,59,8.20
2019,01,23,16,00,8.20
2019,01,23,16,01,8.20
2019,01,23,16,02,8.20
2019,01,23,16,03,8.20
2019,01,23,16,04,8.20
2019,01,23,16,05,8.20
2019,01,23,16,06,8.20
2019,01,23,16,07,8.20
2019,01,23,16,08,8.20
2019,01,23,16,09,8.10
2019,01,23,16,10,8.10
2019,01,23,16,11,8.20
2019,01,23,16,12,8.20
2019,01,23,16,13,8.10
2019,01,23,16,14,8.10
2019,01,23,16,15,8.10
2019,01,23,16,16,8.10
2019,01,23,16,17,8.10
2019,01,23,16,18,8.00
2019,01,23,16,19,8.00
2019,01,23,16,20,8.00
2019,01,23,16,21,7.90
2019,01,23,16,22,7.90
2019,01,23,16,23,7.90
2019,01,23,16,24,7.90
2019,01,23,16,25,7.90
2019,01,23,16,26,7.90
2019,01,23,16,27,7.90
2019,01,23,16,28,7.90
2019,01,23,16,29,7.90
2019,01,23,16,30,7.90
2019,01,23,16,31,7.80
2019,01,23,16,32,7.80
2019,01,23,16,33,7.80
2019,01,23,16,34,7.80
2019,01,23,16,35,7.80
2019,01,23,16,36,7.80
2019,01,23,16,37,7.80
2019,01,23,16,38,7.80
2019,01,23,16,39,7.80
2019,01,23,16,40,7.80
2019,01,23,16,41,7.80
2019,01,23,16,42,7.80
2019,01,23,16,43,7.80
2019,01,23,16,44,7.80
2019,01,23,16,45,7.80
2019,01,23,16,46,7.80
2019,01,23,16,47,7.80
2019,01,23,16,48,7.80
2019,01,23,16,49,7.70
2019,01,23,16,50,7.70
2019,01,23,16,51,7.70
2019,01,23,16,52,7.70
2019,01,23,16,53,7.70
2019,01,23,16,54,7.70
2019,01,23,16,55,7.70
2019,01,23,16,56,7.70
2019,01,23,16,57,7.70
2019,01,23,16,58,7.70
2019,01,23,16,59,7.70
2019,01,23,17,00,7.70
2019,01,23,17,01,7.70
2019,01,23,17,02,7.70
2019,01,23,17,03,7.70
2019,01,23,17,04,7.70
2019,01,23,17,05,7.70
2019,01,23,17,06,7.70
2019,01,23,17,07,7.70
2019,01,23,17,08,7.70
2019,01,23,17,09,7.70
2019,01,23,17,10,7.70
2019,01,23,17,11,7.70
2019,01,23,17,12,7.70
2019,01,23,17,13,7.70
2019,01,23,17,14,7.70
2019,01,23,17,15,7.70
2019,01,23,17,16,7.70
2019,01,23,17,17,7.70
2019,01,23,17,18,7.70
2019,01,23,17,19,7.70
2019,01,23,17,20,7.70
2019,01,23,17,21,7.70
2019,01,23,17,22,7.70
2019,01,23,17,23,7.70
2019,01,23,17,24,7.70
2019,01,23,17,25,7.70
2019,01,23,17,26,7.70
2019,01,23,17,27,7.70
2019,01,23,17,28,7.70
2019,01,23,17,29,7.70
2019,01,23,17,30,7.80
2019,01,23,17,31,7.70
2019,01,23,17,32,7.80
2019,01,23,17,33,7.80
2019,01,23,17,34,7.80
2019,01,23,17,35,7.80
2019,01,23,17,36,7.80
2019,01,23,17,37,7.80
2019,01,23,17,38,7.80
2019,01,23,17,39,7.80
2019,01,23,17,40,7.80
2019,01,23,17,41,7.80
2019,01,23,17,42,7.80
2019,01,23,17,43,7.80
2019,01,23,17,44,7.80
2019,01,23,17,45,7.80
2019,01,23,17,46,7.80
2019,01,23,17,47,7.80
2019,01,23,17,48,7.70
2019,01,23,17,49,7.80
2019,01,23,17,50,7.70
2019,01,23,17,51,7.70
2019,01,23,17,52,7.70
2019,01,23,17,53,7.70
2019,01,23,17,54,7.70
2019,01,23,17,55,7.70
2019,01,23,17,56,7.70
2019,01,23,17,57,7.70
2019,01,23,17,58,7.70
2019,01,23,17,59,7.70
2019,01,23,18,00,7.70
2019,01,23,18,01,7.70
2019,01,23,18,02,7.70
2019,01,23,18,03,7.70
2019,01,23,18,04,7.60
2019,01,23,18,05,7.60
2019,01,23,18,06,7.60
2019,01,23,18,07,7.60
2019,01,23,18,08,7.60
2019,01,23,18,09,7.60
2019,01,23,18,10,7.60
2019,01,23,18,11,7.60
2019,01,23,18,12,7.60
2019,01,23,18,13,7.60
2019,01,23,18,14,7.60
2019,01,23,18,15,7.60
2019,01,23,18,16,7.60
2019,01,23,18,17,7.60
2019,01,23,18,18,7.60
2019,01,23,18,19,7.60
2019,01,23,18,20,7.60
2019,01,23,18,21,7.60
2019,01,23,18,22,7.60
2019,01,23,18,23,7.60
2019,01,23,18,24,7.60
2019,01,23,18,25,7.60
2019,01,23,18,26,7.60
2019,01,23,18,27,7.60
2019,01,23,18,28,7.60
2019,01,23,18,29,7.60
2019,01,23,18,30,7.60
2019,01,23,18,31,7.60
2019,01,23,18,32,7.60
2019,01,23,18,33,7.50
2019,01,23,18,34,7.50
2019,01,23,18,35,7.50
2019,01,23,18,36,7.50
2019,01,23,18,37,7.50
2019,01,23,18,38,7.50
2019,01,23,18,39,7.50
2019,01,23,18,40,7.50
2019,01,23,18,41,7.50
2019,01,23,18,42,7.50
2019,01,23,18,43,7.50
2019,01,23,18,44,7.50
2019,01,23,18,45,7.50
2019,01,23,18,46,7.50
2019,01,23,18,47,7.50
2019,01,23,18,48,7.50
2019,01,23,18,49,7.40
2019,01,23,18,50,7.50
2019,01,23,18,51,7.40
2019,01,23,18,52,7.40
2019,01,23,18,53,7.40
2019,01,23,18,54,7.40
2019,01,23,18,55,7.40
2019,01,23,18,56,7.40
2019,01,23,18,57,7.40
2019,01,23,18,58,7.40
2019,01,23,18,59,7.40
2019,01,23,19,00,7.40
2019,01,23,19,01,7.40
2019,01,23,19,02,7.40
2019,01,23,19,03,7.40
2019,01,23,19,04,7.40
2019,01,23,19,05,7.40
2019,01,23,19,06,7.40
2019,01,23,19,07,7.40
2019,01,23,19,08,7.40
2019,01,23,19,09,7.40
2019,01,23,19,10,7.40
2019,01,23,19,11,7.40
2019,01,23,19,12,7.40
2019,01,23,19,13,7.40
2019,01,23,19,14,7.40
2019,01,23,19,15,7.40
2019,01,23,19,16,7.40
2019,01,23,19,17,7.30
2019,01,23,19,18,7.30
2019,01,23,19,19,7.30
2019,01,23,19,20,7.30
2019,01,23,19,21,7.30
2019,01,23,19,22,7.40
2019,01,23,19,23,7.40
2019,01,23,19,24,7.30
2019,01,23,19,25,7.30
2019,01,23,19,26,7.30
2019,01,23,19,27,7.30
2019,01,23,19,28,7.30
2019,01,23,19,29,7.30
2019,01,23,19,30,7.30
2019,01,23,19,31,7.30
2019,01,23,19,32,7.30
2019,01,23,19,33,7.30
2019,01,23,19,34,7.30
2019,01,23,19,35,7.30
2019,01,23,19,36,7.30
2019,01,23,19,37,7.30
2019,01,23,19,38,7.30
2019,01,23,19,39,7.30
2019,01,23,19,40,7.30
2019,01,23,19,41,7.30
2019,01,23,19,42,7.30
2019,01,23,19,43,7.30
2019,01,23,19,44,7.30
2019,01,23,19,45,7.30
2019,01,23,19,46,7.30
2019,01,23,19,47,7.30
2019,01,23,19,48,7.30
2019,01,23,19,49,7.30
2019,01,23,19,50,7.30
2019,01,23,19,51,7.30
2019,01,23,19,52,7.30
2019,01,23,19,53,7.30
2019,01,23,19,54,7.30
2019,01,23,19,55,7.30
2019,01,23,19,56,7.30
2019,01,23,19,57,7.30
2019,01,23,19,58,7.30
2019,01,23,19,59,7.30
2019,01,23,20,00,7.30
2019,01,23,20,01,7.30
2019,01,23,20,02,7.30
2019,01,23,20,03,7.30
2019,01,23,20,04,7.30
2019,01,23,20,05,7.30
2019,01,23,20,06,7.30
2019,01,23,20,07,7.30
2019,01,23,20,08,7.30
2019,01,23,20,09,7.30
2019,01,23,20,10,7.30
2019,01,23,20,11,7.30
2019,01,23,20,12,7.30
2019,01,23,20,13,7.30
2019,01,23,20,14,7.30
2019,01,23,20,15,7.30
2019,01,23,20,16,7.30
2019,01,23,20,17,7.30
2019,01,23,20,18,7.30
2019,01,23,20,19,7.30
2019,01,23,20,20,7.30
2019,01,23,20,21,7.30
2019,01,23,20,22,7.30
2019,01,23,20,23,7.30
2019,01,23,20,24,7.30
2019,01,23,20,25,7.30
2019,01,23,20,26,7.30
2019,01,23,20,27,7.30
2019,01,23,20,28,7.30
2019,01,23,20,29,7.30
2019,01,23,20,30,7.30
2019,01,23,20,31,7.30
2019,01,23,20,32,7.30
2019,01,23,20,33,7.30
2019,01,23,20,34,7.30
2019,01,23,20,35,7.30
2019,01,23,20,36,7.30
2019,01,23,20,37,7.30
2019,01,23,20,38,7.30
2019,01,23,20,39,7.30
2019,01,23,20,40,7.30
2019,01,23,20,41,7.30
2019,01,23,20,42,7.30
2019,01,23,20,43,7.30
2019,01,23,20,44,7.30
2019,01,23,20,45,7.30
2019,01,23,20,46,7.30
2019,01,23,20,47,7.30
2019,01,23,20,48,7.30
2019,01,23,20,49,7.30
2019,01,23,20,50,7.30
2019,01,23,20,51,7.20
2019,01,23,20,52,7.20
2019,01,23,20,53,7.20
2019,01,23,20,54,7.20
2019,01,23,20,55,7.20
2019,01,23,20,56,7.20
2019,01,23,20,57,7.20
2019,01,23,20,58,7.20
2019,01,23,20,59,7.20
2019,01,23,21,00,7.20
2019,01,23,21,01,7.20
2019,01,23,21,02,7.20
2019,01,23,21,03,7.20
2019,01,23,21,04,7.20
2019,01,23,21,05,7.20
2019,01,23,21,06,7.20
2019,01,23,21,07,7.20
2019,01,23,21,08,7.20
2019,01,23,21,09,7.20
2019,01,23,21,10,7.20
2019,01,23,21,11,7.20
2019,01,23,21,12,7.20
2019,01,23,21,13,7.20
2019,01,23,21,14,7.20
2019,01,23,21,15,7.20
2019,01,23,21,16,7.20
2019,01,23,21,17,7.20
2019,01,23,21,18,7.20
2019,01,23,21,19,7.20
2019,01,23,21,20,7.20
2019,01,23,21,21,7.20
2019,01,23,21,22,7.20
2019,01,23,21,23,7.20
2019,01,23,21,24,7.20
2019,01,23,21,25,7.20
2019,01,23,21,26,7.20
2019,01,23,21,27,7.20
2019,01,23,21,28,7.20
2019,01,23,21,29,7.20
2019,01,23,21,30,7.20
2019,01,23,21,31,7.20
2019,01,23,21,32,7.20
2019,01,23,21,33,7.20
2019,01,23,21,34,7.20
2019,01,23,21,35,7.20
2019,01,23,21,36,7.20
2019,01,23,21,37,7.20
2019,01,23,21,38,7.20
2019,01,23,21,39,7.20
2019,01,23,21,40,7.20
2019,01,23,21,41,7.20
2019,01,23,21,42,7.20
2019,01,23,21,43,7.20
2019,01,23,21,44,7.20
2019,01,23,21,45,7.20
2019,01,23,21,46,7.20
2019,01,23,21,47,7.20
2019,01,23,21,48,7.20
2019,01,23,21,49,7.20
2019,01,23,21,50,7.20
2019,01,23,21,51,7.20
2019,01,23,21,52,7.20
2019,01,23,21,53,7.20
2019,01,23,21,54,7.20
2019,01,23,21,55,7.20
2019,01,23,21,56,7.10
2019,01,23,21,57,7.10
2019,01,23,21,58,7.10
2019,01,23,21,59,7.10
2019,01,23,22,00,7.10
2019,01,23,22,01,7.10
2019,01,23,22,02,7.10
2019,01,23,22,03,7.10
2019,01,23,22,04,7.10
2019,01,23,22,05,7.10
2019,01,23,22,06,7.10
2019,01,23,22,07,7.10
2019,01,23,22,08,7.10
2019,01,23,22,09,7.10
2019,01,23,22,10,7.10
2019,01,23,22,11,7.10
2019,01,23,22,12,7.10
2019,01,23,22,13,7.10
2019,01,23,22,14,7.10
2019,01,23,22,15,7.10
2019,01,23,22,16,7.10
2019,01,23,22,17,7.10
2019,01,23,22,18,7.10
2019,01,23,22,19,7.10
2019,01,23,22,20,7.10
2019,01,23,22,21,7.10
2019,01,23,22,22,7.10
2019,01,23,22,23,7.10
2019,01,23,22,24,7.10
2019,01,23,22,25,7.10
2019,01,23,22,26,7.10
2019,01,23,22,27,7.10
2019,01,23,22,28,7.10
2019,01,23,22,29,7.10
2019,01,23,22,30,7.10
2019,01,23,22,31,7.10
2019,01,23,22,32,7.10
2019,01,23,22,33,7.10
2019,01,23,22,34,7.10
2019,01,23,22,35,7.10
2019,01,23,22,36,7.10
2019,01,23,22,37,7.10
2019,01,23,22,38,7.10
2019,01,23,22,39,7.10
2019,01,23,22,40,7.10
2019,01,23,22,41,7.10
2019,01,23,22,42,7.10
2019,01,23,22,43,7.10
2019,01,23,22,44,7.10
2019,01,23,22,45,7.10
2019,01,23,22,46,7.10
2019,01,23,22,47,7.10
2019,01,23,22,48,7.10
2019,01,23,22,49,7.10
2019,01,23,22,50,7.10
2019,01,23,22,51,7.10
2019,01,23,22,52,7.10
2019,01,23,22,53,7.00
2019,01,23,22,54,7.00
2019,01,23,22,55,7.10
2019,01,23,22,56,7.00
2019,01,23,22,57,7.00
2019,01,23,22,58,7.00
2019,01,23,22,59,7.00
2019,01,23,23,00,7.00
2019,01,23,23,01,7.00
2019,01,23,23,02,7.00
2019,01,23,23,03,7.00
2019,01,23,23,04,7.00
2019,01,23,23,05,7.00
2019,01,23,23,06,7.00
2019,01,23,23,07,7.00
2019,01,23,23,08,7.00
2019,01,23,23,09,7.00
2019,01,23,23,10,7.00
2019,01,23,23,11,7.00
2019,01,23,23,12,7.00
2019,01,23,23,13,7.00
2019,01,23,23,14,7.00
2019,01,23,23,15,7.00
2019,01,23,23,16,7.00
2019,01,23,23,17,7.00
2019,01,23,23,18,7.00
2019,01,23,23,19,7.00
2019,01,23,23,20,7.00
2019,01,23,23,21,7.00
2019,01,23,23,22,7.00
2019,01,23,23,23,7.00
2019,01,23,23,24,7.00
2019,01,23,23,25,7.00
2019,01,23,23,26,7.00
2019,01,23,23,27,7.00
2019,01,23,23,28,7.00
2019,01,23,23,29,7.00
2019,01,23,23,30,7.00
2019,01,23,23,31,7.00
2019,01,23,23,32,7.00
2019,01,23,23,33,7.00
2019,01,23,23,34,7.00
2019,01,23,23,35,7.00
2019,01,23,23,36,7.00
2019,01,23,23,37,7.00
2019,01,23,23,38,7.00
2019,01,23,23,39,7.00
2019,01,23,23,40,7.00
2019,01,23,23,41,7.00
2019,01,23,23,42,7.00
2019,01,23,23,43,7.00
2019,01,23,23,44,7.00
2019,01,23,23,45,7.00
2019,01,23,23,46,7.00
2019,01,23,23,47,7.00
2019,01,23,23,48,7.00
2019,01,23,23,49,7.00
2019,01,23,23,50,7.00
2019,01,23,23,51,7.00
2019,01,23,23,52,7.00
2019,01,23,23,53,7.00
2019,01,23,23,54,7.00
2019,01,23,23,55,7.00
2019,01,23,23,56,7.00
2019,01,23,23,57,7.00
2019,01,23,23,58,7.00
2019,01,23,23,59,7.00
